| time (UTC) | temp C | wind direction | speed KPH | gust KPH | rain 1hr cm | rain 24hr cm | rain mn cm | humidity % | barometer mb |
| 20260831093723 | 21 | 210 | 0.0 | 0.0 | 0.00 | 0.00 | 0.00 | 99 | 1021.5 |
| 20260831093218 | 21 | 210 | 0.0 | 0.0 | 0.00 | 0.00 | 0.00 | 99 | 1021.3 |
| 20260831092715 | 21 | 210 | 0.0 | 0.0 | 0.00 | 0.00 | 0.00 | 99 | 1021.2 |
| 20260831092210 | 21 | 210 | 0.0 | 0.0 | 0.00 | 0.00 | 0.00 | 99 | 1021.3 |
| 20260831091709 | 21 | 210 | 0.0 | 0.0 | 0.00 | 0.00 | 0.00 | 99 | 1021.3 |
| 20260831091206 | 21 | 210 | 0.0 | 0.0 | 0.00 | 0.00 | 0.00 | 99 | 1021.4 |
| 20260831090705 | 21 | 210 | 0.0 | 0.0 | 0.00 | 0.00 | 0.00 | 99 | 1021.1 |
| 20260831090202 | 21 | 210 | 0.0 | 0.0 | 0.00 | 0.00 | 0.00 | 99 | 1021.3 |
| 20260831085657 | 21 | 202 | 0.0 | 0.0 | 0.00 | 0.00 | 0.00 | 99 | 1021.1 |
| 20260831085152 | 21 | 210 | 0.0 | 0.0 | 0.00 | 0.00 | 0.00 | 99 | 1021.1 |
| 20260831084648 | 21 | 210 | 0.0 | 0.0 | 0.00 | 0.00 | 0.00 | 99 | 1021.0 |
| 20260831084144 | 21 | 210 | 0.0 | 0.0 | 0.00 | 0.00 | 0.00 | 99 | 1021.0 |
| 20260831083639 | 21 | 210 | 0.0 | 0.0 | 0.00 | 0.00 | 0.00 | 99 | 1021.2 |
| 20260831083134 | 21 | 210 | 0.0 | 0.0 | 0.00 | 0.00 | 0.00 | 99 | 1020.9 |
| 20260831082633 | 21 | 210 | 0.0 | 0.0 | 0.00 | 0.00 | 0.00 | 99 | 1020.9 |
| 20260831082128 | 21 | 210 | 0.0 | 0.0 | 0.00 | 0.00 | 0.00 | 99 | 1020.8 |
| 20260831081624 | 21 | 210 | 0.0 | 0.0 | 0.00 | 0.00 | 0.00 | 99 | 1020.8 |
| 20260831081120 | 21 | 210 | 0.0 | 0.0 | 0.00 | 0.00 | 0.00 | 99 | 1020.8 |
| 20260831080615 | 21 | 210 | 0.0 | 0.0 | 0.00 | 0.00 | 0.00 | 99 | 1021.1 |
| 20260831080110 | 21 | 210 | 0.0 | 0.0 | 0.00 | 0.00 | 0.00 | 99 | 1021.0 |
| 20260831075606 | 21 | 210 | 0.0 | 0.0 | 0.00 | 0.00 | 0.00 | 99 | 1020.9 |
| 20260831075101 | 21 | 210 | 0.0 | 0.0 | 0.00 | 0.00 | 0.00 | 99 | 1020.9 |
| 20260831074600 | 21 | 210 | 0.0 | 0.0 | 0.00 | 0.00 | 0.00 | 99 | 1020.9 |
| 20260831074055 | 21 | 210 | 0.0 | 0.0 | 0.00 | 0.00 | 0.00 | 99 | 1020.6 |
| 20260831073550 | 21 | 210 | 0.0 | 0.0 | 0.00 | 0.00 | 0.00 | 99 | 1020.8 |
| 20260831073049 | 21 | 210 | 0.0 | 0.0 | 0.00 | 0.00 | 0.00 | 99 | 1020.9 |
| 20260831072544 | 21 | 210 | 0.0 | 0.0 | 0.00 | 0.00 | 0.00 | 99 | 1020.8 |
| 20260831072041 | 21 | 210 | 0.0 | 0.0 | 0.00 | 0.00 | 0.00 | 99 | 1020.9 |
| 20260831071540 | 21 | 210 | 0.0 | 0.0 | 0.00 | 0.00 | 0.00 | 99 | 1020.7 |
| 20260831071035 | 21 | 210 | 0.0 | 0.0 | 0.00 | 0.00 | 0.00 | 99 | 1020.9 |
| 20260831070534 | 21 | 210 | 0.0 | 0.0 | 0.00 | 0.00 | 0.00 | 99 | 1021.1 |
| 20260831070029 | 21 | 210 | 0.0 | 0.0 | 0.00 | 0.00 | 0.00 | 99 | 1021.0 |
| 20260831065527 | 21 | 210 | 0.0 | 0.0 | 0.00 | 0.00 | 0.00 | 99 | 1021.2 |
| 20260831065021 | 21 | 210 | 0.0 | 0.0 | 0.00 | 0.00 | 0.00 | 98 | 1020.9 |
| 20260831064517 | 22 | 210 | 0.0 | 0.0 | 0.00 | 0.00 | 0.00 | 98 | 1021.0 |
| 20260831064012 | 22 | 210 | 0.0 | 0.0 | 0.00 | 0.00 | 0.00 | 98 | 1021.1 |
| 20260831063508 | 22 | 210 | 0.0 | 0.0 | 0.00 | 0.00 | 0.00 | 97 | 1020.9 |
| 20260831063008 | 22 | 210 | 0.0 | 0.0 | 0.00 | 0.00 | 0.00 | 97 | 1021.0 |
| 20260831062503 | 22 | 210 | 0.0 | 0.0 | 0.00 | 0.00 | 0.00 | 97 | 1021.0 |
| 20260831062002 | 22 | 210 | 0.0 | 0.0 | 0.00 | 0.00 | 0.00 | 96 | 1021.0 |
| 20260831061500 | 22 | 203 | 0.0 | 0.0 | 0.00 | 0.00 | 0.00 | 96 | 1021.0 |
| 20260831060956 | 22 | 210 | 0.0 | 0.0 | 0.00 | 0.00 | 0.00 | 96 | 1020.9 |
| 20260831060451 | 22 | 210 | 0.0 | 0.0 | 0.00 | 0.00 | 0.00 | 95 | 1020.8 |
| 20260831055951 | 22 | 210 | 0.0 | 0.0 | 0.00 | 0.00 | 0.00 | 95 | 1021.0 |
| 20260831055446 | 22 | 210 | 0.0 | 0.0 | 0.00 | 0.00 | 0.00 | 94 | 1021.0 |
| 20260831054941 | 23 | 210 | 0.0 | 0.0 | 0.00 | 0.00 | 0.00 | 94 | 1020.9 |
| 20260831054436 | 23 | 210 | 0.0 | 0.0 | 0.00 | 0.00 | 0.00 | 93 | 1020.9 |
| 20260831053935 | 23 | 210 | 0.0 | 0.0 | 0.00 | 0.00 | 0.00 | 92 | 1021.2 |
| 20260831053433 | 23 | 210 | 0.0 | 0.0 | 0.00 | 0.00 | 0.00 | 91 | 1021.0 |
| 20260831052928 | 23 | 210 | 0.0 | 0.0 | 0.00 | 0.00 | 0.00 | 90 | 1021.1 |
| 20260831052428 | 24 | 210 | 0.0 | 0.0 | 0.00 | 0.00 | 0.00 | 90 | 1020.9 |
| 20260831051926 | 24 | 210 | 0.0 | 0.0 | 0.00 | 0.00 | 0.00 | 89 | 1020.9 |
| 20260831051425 | 24 | 210 | 1.6 | 3.2 | 0.00 | 0.00 | 0.00 | 88 | 1021.1 |
| 20260831050919 | 24 | 210 | 1.6 | 3.2 | 0.00 | 0.00 | 0.00 | 87 | 1021.1 |
| 20260831050414 | 24 | 210 | 1.6 | 3.2 | 0.00 | 0.00 | 0.00 | 87 | 1020.9 |
| 20260831045913 | 25 | 210 | 1.6 | 3.2 | 0.00 | 0.00 | 0.00 | 87 | 1021.0 |
| 20260831045412 | 24 | 210 | 1.6 | 3.2 | 0.00 | 0.00 | 0.00 | 87 | 1020.9 |
| 20260831044907 | 25 | 210 | 1.6 | 3.2 | 0.00 | 0.00 | 0.00 | 87 | 1020.8 |
| 20260831044402 | 25 | 210 | 1.6 | 3.2 | 0.00 | 0.00 | 0.00 | 87 | 1020.8 |
| 20260831043858 | 24 | 210 | 1.6 | 3.2 | 0.00 | 0.00 | 0.00 | 87 | 1021.0 |
| 20260831043357 | 25 | 210 | 1.6 | 3.2 | 0.00 | 0.00 | 0.00 | 87 | 1020.9 |
| 20260831042853 | 25 | 210 | 1.6 | 3.2 | 0.00 | 0.00 | 0.00 | 87 | 1021.0 |
| 20260831042352 | 25 | 210 | 0.0 | 0.0 | 0.00 | 0.00 | 0.00 | 87 | 1020.9 |
| 20260831041847 | 25 | 210 | 1.6 | 4.8 | 0.00 | 0.00 | 0.00 | 86 | 1021.1 |
| 20260831041347 | 25 | 210 | 0.0 | 1.6 | 0.00 | 0.00 | 0.00 | 86 | 1021.1 |
| 20260831040842 | 25 | 210 | 3.2 | 4.8 | 0.00 | 0.00 | 0.00 | 87 | 1021.1 |
| 20260831040336 | 25 | 210 | 1.6 | 3.2 | 0.00 | 0.00 | 0.00 | 86 | 1021.1 |
| 20260831035834 | 25 | 210 | 0.0 | 1.6 | 0.00 | 0.00 | 0.00 | 86 | 1020.9 |
| 20260831035333 | 25 | 210 | 1.6 | 3.2 | 0.00 | 0.00 | 0.00 | 87 | 1020.8 |
| 20260831034828 | 25 | 210 | 1.6 | 3.2 | 0.00 | 0.00 | 0.00 | 86 | 1021.0 |
| 20260831034324 | 25 | 210 | 1.6 | 1.6 | 0.00 | 0.00 | 0.00 | 87 | 1021.1 |
| 20260831033818 | 25 | 210 | 1.6 | 3.2 | 0.00 | 0.00 | 0.00 | 86 | 1021.0 |
| 20260831033313 | 25 | 210 | 1.6 | 1.6 | 0.00 | 0.00 | 0.00 | 86 | 1021.1 |
| 20260831032809 | 25 | 210 | 0.0 | 0.0 | 0.00 | 0.00 | 0.00 | 87 | 1021.2 |
| 20260831032306 | 25 | 210 | 0.0 | 0.0 | 0.00 | 0.00 | 0.00 | 86 | 1021.3 |
| 20260831031758 | 25 | 210 | 0.0 | 1.6 | 0.00 | 0.00 | 0.00 | 86 | 1021.0 |
| 20260831031257 | 25 | 210 | 0.0 | 0.0 | 0.00 | 0.00 | 0.00 | 86 | 1021.1 |
| 20260831030753 | 25 | 210 | 0.0 | 3.2 | 0.00 | 0.00 | 0.00 | 86 | 1021.1 |
| 20260831030250 | 25 | 210 | 0.0 | 0.0 | 0.00 | 0.00 | 0.00 | 86 | 1021.0 |
| 20260831025750 | 25 | 210 | 0.0 | 3.2 | 0.00 | 0.00 | 0.00 | 85 | 1021.1 |
| 20260831025244 | 25 | 210 | 0.0 | 0.0 | 0.00 | 0.00 | 0.00 | 86 | 1021.0 |
| 20260831024740 | 25 | 210 | 1.6 | 1.6 | 0.00 | 0.00 | 0.00 | 85 | 1021.0 |
| 20260831024239 | 26 | 210 | 0.0 | 0.0 | 0.00 | 0.00 | 0.00 | 84 | 1021.0 |
| 20260831023738 | 26 | 210 | 1.6 | 3.2 | 0.00 | 0.00 | 0.00 | 84 | 1021.0 |
| 20260831023237 | 26 | 210 | 0.0 | 0.0 | 0.00 | 0.00 | 0.00 | 84 | 1020.8 |
| 20260831022732 | 26 | 205 | 0.0 | 0.0 | 0.00 | 0.00 | 0.00 | 84 | 1020.8 |
| 20260831022227 | 26 | 210 | 0.0 | 1.6 | 0.00 | 0.00 | 0.00 | 83 | 1020.9 |
| 20260831021727 | 26 | 210 | 0.0 | 1.6 | 0.00 | 0.00 | 0.00 | 84 | 1020.9 |
| 20260831021226 | 26 | 210 | 1.6 | 3.2 | 0.00 | 0.00 | 0.00 | 84 | 1021.0 |
| 20260831020723 | 26 | 210 | 1.6 | 3.2 | 0.00 | 0.00 | 0.00 | 84 | 1021.1 |
| 20260831020222 | 25 | 210 | 0.0 | 0.0 | 0.00 | 0.00 | 0.00 | 86 | 1020.9 |
| 20260831015718 | 25 | 210 | 0.0 | 0.0 | 0.00 | 0.00 | 0.00 | 88 | 1020.9 |
| 20260831015213 | 25 | 210 | 0.0 | 0.0 | 0.00 | 0.00 | 0.00 | 91 | 1020.8 |
| 20260831014708 | 25 | 210 | 0.0 | 0.0 | 0.00 | 0.00 | 0.00 | 93 | 1020.8 |
| 20260831014203 | 24 | 210 | 0.0 | 0.0 | 0.00 | 0.00 | 0.00 | 93 | 1020.7 |
| 20260831013659 | 24 | 210 | 0.0 | 0.0 | 0.00 | 0.00 | 0.00 | 93 | 1020.6 |
| 20260831013158 | 24 | 210 | 0.0 | 0.0 | 0.00 | 0.00 | 0.00 | 93 | 1020.7 |
| 20260831012653 | 24 | 210 | 0.0 | 0.0 | 0.00 | 0.00 | 0.00 | 93 | 1020.6 |
| 20260831012149 | 25 | 210 | 0.0 | 0.0 | 0.00 | 0.00 | 0.00 | 93 | 1020.5 |
| 20260831011647 | 25 | 210 | 0.0 | 0.0 | 0.00 | 0.00 | 0.00 | 93 | 1020.4 |
| 20260831011138 | 25 | 210 | 0.0 | 0.0 | 0.00 | 0.00 | 0.00 | 92 | 1020.3 |
| 20260831010634 | 25 | 210 | 0.0 | 0.0 | 0.00 | 0.00 | 0.00 | 90 | 1020.3 |
| 20260831010129 | 25 | 210 | 0.0 | 0.0 | 0.00 | 0.00 | 0.00 | 90 | 1020.3 |
| 20260831005629 | 25 | 210 | 0.0 | 0.0 | 0.00 | 0.00 | 0.00 | 90 | 1020.2 |
| 20260831005124 | 25 | 210 | 0.0 | 0.0 | 0.00 | 0.00 | 0.00 | 89 | 1020.1 |
| 20260831004620 | 25 | 210 | 0.0 | 0.0 | 0.00 | 0.00 | 0.00 | 90 | 1020.1 |
| 20260831004115 | 26 | 210 | 0.0 | 0.0 | 0.00 | 0.00 | 0.00 | 90 | 1019.9 |
| 20260831003611 | 26 | 210 | 0.0 | 0.0 | 0.00 | 0.00 | 0.00 | 89 | 1019.8 |
| 20260831003107 | 26 | 210 | 0.0 | 0.0 | 0.00 | 0.00 | 0.00 | 89 | 1019.9 |
| 20260831002605 | 26 | 210 | 0.0 | 0.0 | 0.00 | 0.00 | 0.00 | 89 | 1019.9 |
| 20260831002101 | 27 | 210 | 0.0 | 0.0 | 0.00 | 0.00 | 0.00 | 87 | 1019.9 |
| 20260831001556 | 27 | 210 | 0.0 | 0.0 | 0.00 | 0.00 | 0.00 | 86 | 1019.7 |
| 20260831001052 | 27 | 210 | 0.0 | 0.0 | 0.00 | 0.00 | 0.00 | 84 | 1019.7 |
| 20260831000549 | 28 | 210 | 0.0 | 0.0 | 0.00 | 0.00 | 0.00 | 80 | 1019.7 |
| 20260831000048 | 28 | 210 | 0.0 | 0.0 | 0.00 | 0.00 | 0.00 | 79 | 1019.7 |
| 20260830235547 | 29 | 210 | 0.0 | 0.0 | 0.00 | 0.00 | 0.00 | 78 | 1019.7 |
| 20260830235042 | 30 | 210 | 0.0 | 0.0 | 0.00 | 0.00 | 0.00 | 76 | 1019.7 |
| 20260830234537 | 30 | 210 | 0.0 | 0.0 | 0.00 | 0.00 | 0.00 | 76 | 1019.8 |
| 20260830234032 | 30 | 210 | 0.0 | 0.0 | 0.00 | 0.00 | 0.00 | 77 | 1019.8 |
| 20260830233527 | 29 | 210 | 0.0 | 0.0 | 0.00 | 0.00 | 0.00 | 76 | 1019.8 |
| 20260830233023 | 29 | 210 | 0.0 | 3.2 | 0.00 | 0.00 | 0.00 | 76 | 1019.6 |
| 20260830232519 | 29 | 210 | 0.0 | 1.6 | 0.00 | 0.00 | 0.00 | 76 | 1019.8 |
| 20260830232015 | 30 | 210 | 0.0 | 0.0 | 0.00 | 0.00 | 0.00 | 76 | 1019.7 |
| 20260830231511 | 29 | 211 | 0.0 | 0.0 | 0.00 | 0.00 | 0.00 | 76 | 1019.7 |
| 20260830231010 | 30 | 210 | 0.0 | 0.0 | 0.00 | 0.00 | 0.00 | 75 | 1019.9 |
| 20260830230505 | 30 | 211 | 0.0 | 0.0 | 0.00 | 0.00 | 0.00 | 75 | 1019.9 |
| 20260830230005 | 30 | 211 | 0.0 | 0.0 | 0.00 | 0.00 | 0.00 | 73 | 1019.8 |
| 20260830225501 | 30 | 210 | 0.0 | 0.0 | 0.00 | 0.00 | 0.00 | 69 | 1019.7 |
| 20260830225000 | 30 | 210 | 0.0 | 0.0 | 0.00 | 0.00 | 0.00 | 67 | 1019.6 |
| 20260830224458 | 30 | 210 | 0.0 | 0.0 | 0.00 | 0.00 | 0.00 | 68 | 1019.9 |
| 20260830223955 | 30 | 210 | 0.0 | 0.0 | 0.00 | 0.00 | 0.00 | 67 | 1019.7 |
| 20260830223452 | 30 | 210 | 0.0 | 0.0 | 0.00 | 0.00 | 0.00 | 66 | 1019.8 |
| 20260830222951 | 31 | 210 | 0.0 | 1.6 | 0.00 | 0.00 | 0.00 | 65 | 1019.8 |
| 20260830222446 | 32 | 211 | 0.0 | 1.6 | 0.00 | 0.00 | 0.00 | 64 | 1019.7 |
| 20260830221942 | 32 | 205 | 0.0 | 0.0 | 0.00 | 0.00 | 0.00 | 62 | 1019.7 |
| 20260830221438 | 32 | 205 | 3.2 | 3.2 | 0.00 | 0.00 | 0.00 | 61 | 1019.8 |
| 20260830220933 | 32 | 211 | 0.0 | 0.0 | 0.00 | 0.00 | 0.00 | 62 | 1020.0 |
| 20260830220428 | 31 | 211 | 0.0 | 0.0 | 0.00 | 0.00 | 0.00 | 62 | 1019.6 |
| 20260830215925 | 31 | 211 | 0.0 | 3.2 | 0.00 | 0.00 | 0.00 | 63 | 1019.7 |
| 20260830215420 | 31 | 211 | 0.0 | 0.0 | 0.00 | 0.00 | 0.00 | 62 | 1019.8 |
| 20260830214915 | 32 | 211 | 0.0 | 3.2 | 0.00 | 0.00 | 0.00 | 64 | 1019.7 |
| 20260830214410 | 31 | 211 | 0.0 | 0.0 | 0.00 | 0.00 | 0.00 | 64 | 1019.8 |
| 20260830213904 | 31 | 211 | 3.2 | 3.2 | 0.00 | 0.00 | 0.00 | 62 | 1019.9 |
| 20260830213359 | 31 | 211 | 0.0 | 4.8 | 0.00 | 0.00 | 0.00 | 64 | 1019.6 |
| 20260830212850 | 31 | 210 | 0.0 | 0.0 | 0.00 | 0.00 | 0.00 | 65 | 1019.6 |
| 20260830212346 | 31 | 210 | 0.0 | 4.8 | 0.00 | 0.00 | 0.00 | 64 | 1019.7 |
| 20260830211844 | 30 | 210 | 0.0 | 1.6 | 0.00 | 0.00 | 0.00 | 65 | 1019.6 |
| 20260830211338 | 30 | 210 | 0.0 | 1.6 | 0.00 | 0.00 | 0.00 | 65 | 1019.7 |
| 20260830210834 | 31 | 210 | 0.0 | 3.2 | 0.00 | 0.00 | 0.00 | 65 | 1019.9 |
| 20260830210333 | 31 | 210 | 6.4 | 9.7 | 0.00 | 0.00 | 0.00 | 62 | 1020.0 |
| 20260830205832 | 32 | 211 | 1.6 | 4.8 | 0.00 | 0.00 | 0.00 | 62 | 1019.9 |
| 20260830205331 | 32 | 211 | 1.6 | 1.6 | 0.00 | 0.00 | 0.00 | 58 | 1019.9 |
| 20260830204826 | 33 | 211 | 1.6 | 3.2 | 0.00 | 0.00 | 0.00 | 57 | 1020.1 |
| 20260830204325 | 32 | 211 | 1.6 | 3.2 | 0.00 | 0.00 | 0.00 | 59 | 1019.9 |
| 20260830203821 | 32 | 211 | 0.0 | 1.6 | 0.00 | 0.00 | 0.00 | 63 | 1019.9 |
| 20260830203317 | 31 | 211 | 0.0 | 4.8 | 0.00 | 0.00 | 0.00 | 63 | 1020.1 |
| 20260830202816 | 31 | 211 | 1.6 | 4.8 | 0.00 | 0.00 | 0.00 | 64 | 1020.1 |
| 20260830202312 | 32 | 211 | 0.0 | 1.6 | 0.00 | 0.00 | 0.00 | 62 | 1020.0 |
| 20260830201807 | 32 | 211 | 0.0 | 4.8 | 0.00 | 0.00 | 0.00 | 62 | 1020.1 |
| 20260830201301 | 31 | 211 | 0.0 | 0.0 | 0.00 | 0.00 | 0.00 | 62 | 1020.1 |
| 20260830200757 | 31 | 210 | 0.0 | 0.0 | 0.00 | 0.00 | 0.00 | 65 | 1020.3 |
| 20260830200256 | 31 | 210 | 0.0 | 1.6 | 0.00 | 0.00 | 0.00 | 63 | 1020.3 |
| 20260830195752 | 32 | 210 | 8.0 | 9.7 | 0.00 | 0.00 | 0.00 | 61 | 1020.2 |
| 20260830195251 | 32 | 210 | 0.0 | 1.6 | 0.00 | 0.00 | 0.00 | 61 | 1020.2 |
| 20260830194749 | 32 | 210 | 1.6 | 3.2 | 0.00 | 0.00 | 0.00 | 64 | 1020.5 |
| 20260830194244 | 31 | 211 | 3.2 | 9.7 | 0.00 | 0.00 | 0.00 | 63 | 1020.3 |
| 20260830193743 | 31 | 211 | 0.0 | 1.6 | 0.00 | 0.00 | 0.00 | 65 | 1020.4 |
| 20260830193238 | 31 | 211 | 1.6 | 1.6 | 0.00 | 0.00 | 0.00 | 66 | 1020.6 |
| 20260830192734 | 32 | 204 | 0.0 | 4.8 | 0.00 | 0.00 | 0.00 | 63 | 1020.5 |
| 20260830192228 | 32 | 210 | 0.0 | 0.0 | 0.00 | 0.00 | 0.00 | 63 | 1020.6 |
| 20260830191725 | 31 | 210 | 1.6 | 4.8 | 0.00 | 0.00 | 0.00 | 64 | 1020.5 |
| 20260830191224 | 32 | 210 | 1.6 | 3.2 | 0.00 | 0.00 | 0.00 | 63 | 1020.8 |
| 20260830190719 | 31 | 205 | 3.2 | 3.2 | 0.00 | 0.00 | 0.00 | 64 | 1021.0 |
| 20260830190214 | 31 | 210 | 0.0 | 4.8 | 0.00 | 0.00 | 0.00 | 66 | 1021.1 |
| 20260830185713 | 30 | 210 | 0.0 | 1.6 | 0.00 | 0.00 | 0.00 | 67 | 1021.2 |
| 20260830185209 | 31 | 210 | 0.0 | 6.4 | 0.00 | 0.00 | 0.00 | 68 | 1021.3 |
| 20260830184708 | 31 | 210 | 1.6 | 3.2 | 0.00 | 0.00 | 0.00 | 65 | 1021.2 |
| 20260830184207 | 31 | 210 | 0.0 | 0.0 | 0.00 | 0.00 | 0.00 | 66 | 1021.5 |
| 20260830183702 | 30 | 210 | 0.0 | 0.0 | 0.00 | 0.00 | 0.00 | 70 | 1021.4 |
| 20260830183158 | 30 | 210 | 3.2 | 4.8 | 0.00 | 0.00 | 0.00 | 67 | 1021.4 |
| 20260830182652 | 30 | 210 | 3.2 | 4.8 | 0.00 | 0.00 | 0.00 | 69 | 1021.9 |
| 20260830182149 | 29 | 210 | 0.0 | 0.0 | 0.00 | 0.00 | 0.00 | 71 | 1021.7 |
| 20260830181644 | 30 | 210 | 0.0 | 0.0 | 0.00 | 0.00 | 0.00 | 72 | 1021.8 |
| 20260830181139 | 31 | 210 | 0.0 | 1.6 | 0.00 | 0.00 | 0.00 | 69 | 1021.8 |
| 20260830180638 | 30 | 210 | 1.6 | 3.2 | 0.00 | 0.00 | 0.00 | 70 | 1022.1 |
| 20260830180133 | 30 | 210 | 0.0 | 1.6 | 0.00 | 0.00 | 0.00 | 72 | 1022.1 |
| 20260830175632 | 30 | 210 | 0.0 | 0.0 | 0.00 | 0.00 | 0.00 | 70 | 1022.2 |
| 20260830175127 | 30 | 205 | 0.0 | 3.2 | 0.00 | 0.00 | 0.00 | 73 | 1022.3 |
| 20260830174622 | 30 | 210 | 0.0 | 4.8 | 0.00 | 0.00 | 0.00 | 72 | 1022.3 |
| 20260830174118 | 30 | 210 | 1.6 | 4.8 | 0.00 | 0.00 | 0.00 | 72 | 1022.4 |
| 20260830173612 | 30 | 204 | 0.0 | 3.2 | 0.00 | 0.00 | 0.00 | 72 | 1022.5 |
| 20260830173108 | 29 | 210 | 0.0 | 3.2 | 0.00 | 0.00 | 0.00 | 74 | 1022.5 |
| 20260830172605 | 28 | 210 | 0.0 | 3.2 | 0.00 | 0.00 | 0.00 | 75 | 1022.6 |
| 20260830172101 | 29 | 210 | 1.6 | 6.4 | 0.00 | 0.00 | 0.00 | 73 | 1022.7 |
| 20260830171556 | 29 | 210 | 0.0 | 1.6 | 0.00 | 0.00 | 0.00 | 75 | 1022.9 |
| 20260830171050 | 28 | 210 | 0.0 | 4.8 | 0.00 | 0.00 | 0.00 | 77 | 1022.9 |
| 20260830170550 | 28 | 210 | 3.2 | 9.7 | 0.00 | 0.00 | 0.00 | 75 | 1022.9 |
| 20260830170044 | 29 | 210 | 0.0 | 4.8 | 0.00 | 0.00 | 0.00 | 76 | 1022.8 |
| 20260830165539 | 28 | 210 | 1.6 | 4.8 | 0.00 | 0.00 | 0.00 | 77 | 1023.0 |
| 20260830165035 | 28 | 210 | 0.0 | 0.0 | 0.00 | 0.00 | 0.00 | 78 | 1023.1 |
| 20260830164530 | 28 | 210 | 0.0 | 6.4 | 0.00 | 0.00 | 0.00 | 77 | 1023.0 |
| 20260830164021 | 28 | 210 | 3.2 | 6.4 | 0.00 | 0.00 | 0.00 | 76 | 1023.1 |
| 20260830163518 | 29 | 210 | 3.2 | 4.8 | 0.00 | 0.00 | 0.00 | 77 | 1023.0 |
| 20260830163016 | 28 | 210 | 0.0 | 1.6 | 0.00 | 0.00 | 0.00 | 79 | 1023.0 |
| 20260830162513 | 28 | 210 | 0.0 | 3.2 | 0.00 | 0.00 | 0.00 | 76 | 1023.0 |
| 20260830162013 | 28 | 210 | 1.6 | 6.4 | 0.00 | 0.00 | 0.00 | 76 | 1023.2 |
| 20260830161508 | 28 | 210 | 6.4 | 9.7 | 0.00 | 0.00 | 0.00 | 77 | 1023.2 |
| 20260830161002 | 28 | 210 | 1.6 | 9.7 | 0.00 | 0.00 | 0.00 | 78 | 1023.4 |
| 20260830160458 | 28 | 210 | 0.0 | 3.2 | 0.00 | 0.00 | 0.00 | 80 | 1023.4 |
| 20260830155953 | 28 | 210 | 0.0 | 3.2 | 0.00 | 0.00 | 0.00 | 79 | 1023.2 |
| 20260830155449 | 27 | 210 | 0.0 | 3.2 | 0.00 | 0.00 | 0.00 | 79 | 1023.6 |
| 20260830154944 | 28 | 210 | 3.2 | 9.7 | 0.00 | 0.00 | 0.00 | 79 | 1023.5 |
| 20260830154440 | 27 | 210 | 1.6 | 4.8 | 0.00 | 0.00 | 0.00 | 79 | 1023.5 |
| 20260830153936 | 27 | 204 | 3.2 | 6.4 | 0.00 | 0.00 | 0.00 | 80 | 1023.7 |
| 20260830153432 | 27 | 210 | 1.6 | 1.6 | 0.00 | 0.00 | 0.00 | 81 | 1023.4 |
| 20260830152931 | 27 | 210 | 0.0 | 4.8 | 0.00 | 0.00 | 0.00 | 82 | 1023.5 |
| 20260830152426 | 27 | 210 | 4.8 | 6.4 | 0.00 | 0.00 | 0.00 | 81 | 1023.7 |
| 20260830151919 | 27 | 210 | 3.2 | 11.3 | 0.00 | 0.00 | 0.00 | 82 | 1023.5 |
| 20260830151414 | 27 | 210 | 4.8 | 4.8 | 0.00 | 0.00 | 0.00 | 82 | 1023.4 |
| 20260830150909 | 27 | 210 | 1.6 | 6.4 | 0.00 | 0.00 | 0.00 | 83 | 1023.4 |
| 20260830150409 | 26 | 210 | 4.8 | 9.7 | 0.00 | 0.00 | 0.00 | 83 | 1023.4 |
| 20260830145902 | 27 | 210 | 1.6 | 6.4 | 0.00 | 0.00 | 0.00 | 82 | 1023.3 |
| 20260830145357 | 27 | 210 | 1.6 | 3.2 | 0.00 | 0.00 | 0.00 | 82 | 1023.5 |
| 20260830144852 | 27 | 210 | 0.0 | 3.2 | 0.00 | 0.00 | 0.00 | 85 | 1023.3 |
| 20260830144349 | 27 | 210 | 4.8 | 4.8 | 0.00 | 0.00 | 0.00 | 84 | 1023.4 |
| 20260830143844 | 27 | 210 | 3.2 | 9.7 | 0.00 | 0.00 | 0.00 | 85 | 1023.4 |
| 20260830143343 | 26 | 210 | 1.6 | 6.4 | 0.00 | 0.00 | 0.00 | 85 | 1023.5 |
| 20260830142838 | 26 | 204 | 4.8 | 6.4 | 0.00 | 0.00 | 0.00 | 88 | 1023.5 |
| 20260830142333 | 26 | 210 | 0.0 | 4.8 | 0.00 | 0.00 | 0.00 | 89 | 1023.4 |
| 20260830141828 | 26 | 210 | 1.6 | 4.8 | 0.00 | 0.00 | 0.00 | 88 | 1023.5 |
| 20260830141323 | 26 | 210 | 3.2 | 4.8 | 0.00 | 0.00 | 0.00 | 87 | 1023.6 |
| 20260830140818 | 26 | 210 | 0.0 | 1.6 | 0.00 | 0.00 | 0.00 | 88 | 1023.6 |
| 20260830140313 | 26 | 210 | 0.0 | 1.6 | 0.00 | 0.00 | 0.00 | 90 | 1023.5 |
| 20260830135807 | 26 | 210 | 3.2 | 4.8 | 0.00 | 0.00 | 0.00 | 90 | 1023.5 |
| 20260830135306 | 26 | 210 | 0.0 | 3.2 | 0.00 | 0.00 | 0.00 | 90 | 1023.6 |
| 20260830134759 | 25 | 210 | 0.0 | 4.8 | 0.00 | 0.00 | 0.00 | 90 | 1023.6 |
| 20260830134258 | 25 | 210 | 3.2 | 3.2 | 0.00 | 0.00 | 0.00 | 90 | 1023.4 |
| 20260830133754 | 25 | 210 | 0.0 | 3.2 | 0.00 | 0.00 | 0.00 | 91 | 1023.7 |
| 20260830133249 | 25 | 210 | 1.6 | 1.6 | 0.00 | 0.00 | 0.00 | 91 | 1023.7 |
| 20260830132745 | 25 | 210 | 3.2 | 4.8 | 0.00 | 0.00 | 0.00 | 92 | 1023.8 |
| 20260830132241 | 25 | 210 | 3.2 | 4.8 | 0.00 | 0.00 | 0.00 | 92 | 1023.7 |
| 20260830131739 | 24 | 210 | 1.6 | 4.8 | 0.00 | 0.00 | 0.00 | 93 | 1023.7 |
| 20260830131235 | 24 | 210 | 3.2 | 3.2 | 0.00 | 0.00 | 0.00 | 93 | 1023.7 |
| 20260830130730 | 24 | 210 | 1.6 | 4.8 | 0.00 | 0.00 | 0.00 | 94 | 1023.5 |
| 20260830130230 | 24 | 210 | 3.2 | 3.2 | 0.00 | 0.00 | 0.00 | 93 | 1023.5 |
| 20260830125724 | 24 | 210 | 3.2 | 3.2 | 0.00 | 0.00 | 0.00 | 93 | 1023.5 |
| 20260830125219 | 24 | 210 | 1.6 | 4.8 | 0.00 | 0.00 | 0.00 | 93 | 1023.6 |
| 20260830124717 | 24 | 204 | 0.0 | 0.0 | 0.00 | 0.00 | 0.00 | 92 | 1023.4 |
| 20260830124213 | 24 | 210 | 0.0 | 0.0 | 0.00 | 0.00 | 0.00 | 92 | 1023.4 |
| 20260830123709 | 24 | 210 | 0.0 | 0.0 | 0.00 | 0.00 | 0.00 | 93 | 1023.1 |
| 20260830123205 | 23 | 210 | 0.0 | 0.0 | 0.00 | 0.00 | 0.00 | 94 | 1023.2 |
| 20260830122702 | 23 | 210 | 0.0 | 0.0 | 0.00 | 0.00 | 0.00 | 95 | 1023.5 |
| 20260830122157 | 23 | 210 | 0.0 | 0.0 | 0.00 | 0.00 | 0.00 | 96 | 1023.2 |
| 20260830121653 | 22 | 210 | 0.0 | 0.0 | 0.00 | 0.00 | 0.00 | 97 | 1023.1 |
| 20260830121152 | 22 | 210 | 0.0 | 0.0 | 0.00 | 0.00 | 0.00 | 99 | 1023.3 |
| 20260830120647 | 22 | 210 | 0.0 | 0.0 | 0.00 | 0.00 | 0.00 | 99 | 1023.1 |
| 20260830120143 | 21 | 210 | 0.0 | 0.0 | 0.00 | 0.00 | 0.00 | 99 | 1023.0 |
| 20260830115639 | 21 | 210 | 0.0 | 0.0 | 0.00 | 0.00 | 0.00 | 99 | 1022.9 |
| 20260830115135 | 21 | 210 | 0.0 | 0.0 | 0.00 | 0.00 | 0.00 | 99 | 1022.9 |
| 20260830114632 | 21 | 210 | 0.0 | 0.0 | 0.00 | 0.00 | 0.00 | 99 | 1023.0 |
| 20260830114131 | 20 | 210 | 0.0 | 0.0 | 0.00 | 0.00 | 0.00 | 99 | 1022.8 |
| 20260830113626 | 20 | 210 | 0.0 | 0.0 | 0.00 | 0.00 | 0.00 | 99 | 1022.7 |
| 20260830113121 | 20 | 210 | 0.0 | 0.0 | 0.00 | 0.00 | 0.00 | 99 | 1022.6 |
| 20260830112612 | 20 | 210 | 0.0 | 0.0 | 0.00 | 0.00 | 0.00 | 99 | 1022.3 |
| 20260830112108 | 20 | 210 | 0.0 | 0.0 | 0.00 | 0.00 | 0.00 | 99 | 1022.5 |
| 20260830111603 | 21 | 210 | 0.0 | 0.0 | 0.00 | 0.00 | 0.00 | 99 | 1022.6 |
| 20260830111059 | 21 | 210 | 0.0 | 0.0 | 0.00 | 0.00 | 0.00 | 99 | 1022.5 |
| 20260830110558 | 20 | 210 | 0.0 | 0.0 | 0.00 | 0.00 | 0.00 | 99 | 1022.2 |
| 20260830110054 | 21 | 210 | 0.0 | 0.0 | 0.00 | 0.00 | 0.00 | 99 | 1022.3 |
| 20260830105549 | 21 | 210 | 0.0 | 0.0 | 0.00 | 0.00 | 0.00 | 99 | 1022.5 |
| 20260830105045 | 21 | 210 | 0.0 | 0.0 | 0.00 | 0.00 | 0.00 | 99 | 1022.3 |
| 20260830104541 | 21 | 210 | 0.0 | 0.0 | 0.00 | 0.00 | 0.00 | 99 | 1022.1 |
| 20260830104037 | 21 | 210 | 0.0 | 0.0 | 0.00 | 0.00 | 0.00 | 99 | 1022.0 |
| 20260830103532 | 21 | 210 | 0.0 | 0.0 | 0.00 | 0.00 | 0.00 | 99 | 1022.2 |
| 20260830103031 | 21 | 210 | 0.0 | 0.0 | 0.00 | 0.00 | 0.00 | 99 | 1022.2 |
| 20260830102531 | 21 | 210 | 0.0 | 0.0 | 0.00 | 0.00 | 0.00 | 99 | 1022.2 |
| 20260830102027 | 21 | 210 | 0.0 | 0.0 | 0.00 | 0.00 | 0.00 | 99 | 1022.1 |
| 20260830101522 | 21 | 210 | 0.0 | 0.0 | 0.00 | 0.00 | 0.00 | 99 | 1021.9 |
| 20260830101021 | 21 | 210 | 0.0 | 0.0 | 0.00 | 0.00 | 0.00 | 99 | 1022.0 |
| 20260830100516 | 21 | 210 | 0.0 | 0.0 | 0.00 | 0.00 | 0.00 | 99 | 1021.9 |
| 20260830100015 | 21 | 210 | 0.0 | 0.0 | 0.00 | 0.00 | 0.00 | 99 | 1022.0 |
| 20260830095511 | 21 | 210 | 0.0 | 0.0 | 0.00 | 0.00 | 0.00 | 99 | 1021.8 |
| 20260830095007 | 21 | 210 | 0.0 | 0.0 | 0.00 | 0.00 | 0.00 | 99 | 1021.9 |
| 20260830094503 | 21 | 210 | 0.0 | 0.0 | 0.00 | 0.00 | 0.00 | 99 | 1021.7 |
| 20260830093957 | 21 | 210 | 0.0 | 0.0 | 0.00 | 0.00 | 0.00 | 99 | 1021.8 |